DLH6LL EDDM-OERK

Flight info

Callsign DLH6LL
Flight time N/A
Altitude 37000
Route VAVOR3Q VAVOR M867 RADIZ DCT EVAXI DCT ADOMO DCT NEMEK DCT ETOBI DCT IDASI DCT EDALA DCT SOLGU DCT MEDUX UM867 KOGAT DCT ERANA UL737 TSL UN130 MES UL609 RDS UL995 VANZA N134 BIRES/N0476F390 N134 TULEP N318 TAMRO T503 RARSU
Aircraft A346/H-SDE2E3FGHIJ3J4J5M1RWXY/LB1D1

Departure

Time 2026-05-06 12:36
Airport Munich Airport (EDDM)

Arrival

Time N/A
Airport King Khalid International Airport (OERK)
Time Latitude Longitude Altitude Speed Heading
2026-05-06 11:43 48.35668 11.79974 1481 ft 0 kts 263°
2026-05-06 11:43 48.35666 11.79946 1481 ft 0 kts 263°
2026-05-06 11:44 48.35666 11.79951 1480 ft 0 kts 263°
2026-05-06 12:17 48.35668 11.79973 1477 ft 4 kts 263°
2026-05-06 12:18 48.35671 11.80012 1477 ft 4 kts 260°
2026-05-06 12:18 48.35678 11.80047 1477 ft 4 kts 240°
2026-05-06 12:18 48.35693 11.80075 1477 ft 4 kts 216°
2026-05-06 12:18 48.35715 11.80092 1477 ft 4 kts 199°
2026-05-06 12:19 48.35729 11.80099 1477 ft 0 kts 199°
2026-05-06 12:24 48.35728 11.80099 1494 ft 0 kts 197°
2026-05-06 12:24 48.35718 11.80098 1494 ft 6 kts 183°
2026-05-06 12:24 48.35663 11.80097 1491 ft 10 kts 176°
2026-05-06 12:25 48.35589 11.80109 1484 ft 12 kts 174°
2026-05-06 12:25 48.35503 11.80124 1483 ft 13 kts 173°
2026-05-06 12:25 48.35410 11.80146 1481 ft 14 kts 166°
2026-05-06 12:25 48.35308 11.80169 1494 ft 15 kts 174°
2026-05-06 12:26 48.35199 11.80187 1488 ft 16 kts 173°
2026-05-06 12:26 48.35139 11.80146 1477 ft 10 kts 246°
2026-05-06 12:26 48.35126 11.80029 1481 ft 12 kts 262°
2026-05-06 12:26 48.35116 11.79895 1486 ft 14 kts 264°
2026-05-06 12:27 48.35105 11.79749 1494 ft 15 kts 262°
2026-05-06 12:27 48.35091 11.79594 1485 ft 15 kts 249°
2026-05-06 12:27 48.35003 11.79532 1485 ft 16 kts 173°
2026-05-06 12:27 48.34891 11.79553 1490 ft 17 kts 173°
2026-05-06 12:28 48.34792 11.79499 1484 ft 17 kts 249°
2026-05-06 12:28 48.34772 11.79314 1484 ft 19 kts 264°
2026-05-06 12:28 48.34757 11.79110 1494 ft 20 kts 264°
2026-05-06 12:28 48.34738 11.78867 1480 ft 25 kts 263°
2026-05-06 12:29 48.34716 11.78604 1489 ft 26 kts 263°
2026-05-06 12:29 48.34696 11.78339 1482 ft 19 kts 264°
2026-05-06 12:29 48.34688 11.78222 1488 ft 11 kts 264°
2026-05-06 12:29 48.34678 11.78083 1486 ft 14 kts 263°
2026-05-06 12:30 48.34665 11.77929 1482 ft 15 kts 263°
2026-05-06 12:30 48.34652 11.77766 1479 ft 16 kts 263°
2026-05-06 12:30 48.34640 11.77592 1494 ft 18 kts 264°
2026-05-06 12:30 48.34625 11.77400 1482 ft 19 kts 263°
2026-05-06 12:31 48.34608 11.77189 1487 ft 21 kts 263°
2026-05-06 12:31 48.34591 11.76964 1490 ft 22 kts 263°
2026-05-06 12:31 48.34572 11.76725 1494 ft 23 kts 263°
2026-05-06 12:31 48.34553 11.76476 1482 ft 24 kts 264°
2026-05-06 12:32 48.34534 11.76216 1488 ft 25 kts 263°
2026-05-06 12:32 48.34513 11.75950 1486 ft 26 kts 263°
2026-05-06 12:32 48.34492 11.75676 1484 ft 27 kts 264°
2026-05-06 12:32 48.34473 11.75410 1493 ft 18 kts 263°
2026-05-06 12:33 48.34457 11.75256 1489 ft 13 kts 260°
2026-05-06 12:33 48.34439 11.75114 1485 ft 14 kts 241°
2026-05-06 12:33 48.34349 11.75071 1482 ft 15 kts 174°
2026-05-06 12:33 48.34298 11.75079 1480 ft 0 kts 173°
2026-05-06 12:34 48.34281 11.75082 1482 ft 5 kts 173°
2026-05-06 12:34 48.34230 11.75091 1484 ft 12 kts 173°
2026-05-06 12:34 48.34147 11.75127 1487 ft 13 kts 148°
2026-05-06 12:34 48.34085 11.75235 1482 ft 14 kts 112°
2026-05-06 12:35 48.34087 11.75348 1494 ft 15 kts 84°
2026-05-06 12:35 48.34122 11.75812 1481 ft 74 kts 83°
2026-05-06 12:35 48.34204 11.76860 1491 ft 126 kts 83°
2026-05-06 12:35 48.34323 11.78407 1481 ft 170 kts 83°
2026-05-06 12:36 48.34461 11.80362 1622 ft 196 kts 82°
2026-05-06 12:36 48.34593 11.82421 2157 ft 199 kts 83°
2026-05-06 12:36 48.34729 11.84515 2698 ft 203 kts 84°
2026-05-06 12:36 48.34869 11.86643 3306 ft 204 kts 84°
2026-05-06 12:37 48.35012 11.88811 3715 ft 214 kts 84°
2026-05-06 12:37 48.35189 11.91137 3920 ft 234 kts 83°
2026-05-06 12:37 48.35413 11.93681 4188 ft 253 kts 84°
2026-05-06 12:37 48.35230 11.96279 4913 ft 250 kts 115°
2026-05-06 12:38 48.34106 11.98198 5659 ft 247 kts 150°
2026-05-06 12:38 48.32550 11.99365 6266 ft 253 kts 153°
2026-05-06 12:38 48.31041 12.00782 6950 ft 256 kts 145°
2026-05-06 12:38 48.29620 12.02409 7648 ft 257 kts 153°
2026-05-06 12:39 48.27936 12.03069 8220 ft 259 kts 184°
2026-05-06 12:39 48.26120 12.02770 8773 ft 267 kts 186°
2026-05-06 12:39 48.24246 12.02537 9462 ft 272 kts 185°
2026-05-06 12:39 48.22344 12.02382 10208 ft 274 kts 184°
2026-05-06 12:40 48.20434 12.02258 10959 ft 276 kts 184°
2026-05-06 12:40 48.18514 12.02142 11706 ft 277 kts 185°
2026-05-06 12:40 48.16578 12.02032 12489 ft 279 kts 184°
2026-05-06 12:40 48.14622 12.02275 13231 ft 285 kts 173°
2026-05-06 12:41 48.12699 12.03115 13926 ft 292 kts 163°
2026-05-06 12:41 48.10817 12.04284 14615 ft 293 kts 162°
2026-05-06 12:41 48.08925 12.05502 15276 ft 296 kts 161°
2026-05-06 12:41 48.07025 12.06727 15920 ft 298 kts 161°
2026-05-06 12:42 48.05755 12.07545 16369 ft 300 kts 161°
2026-05-06 12:42 48.03830 12.08781 17015 ft 302 kts 161°
2026-05-06 12:42 48.01873 12.10036 17673 ft 305 kts 161°
2026-05-06 12:42 47.99918 12.11289 18287 ft 308 kts 161°
2026-05-06 12:43 47.98414 12.12255 18721 ft 309 kts 162°
2026-05-06 12:43 47.98023 12.12506 18841 ft 309 kts 162°
2026-05-06 12:43 47.96039 12.13775 19420 ft 311 kts 162°
2026-05-06 12:44 47.94083 12.15232 19985 ft 317 kts 155°
2026-05-06 12:44 47.92216 12.17052 20503 ft 326 kts 149°
2026-05-06 12:44 47.90403 12.19216 20756 ft 341 kts 147°
2026-05-06 12:44 47.88550 12.21535 20996 ft 354 kts 146°
2026-05-06 12:45 47.86638 12.23943 21235 ft 366 kts 146°
2026-05-06 12:45 47.84657 12.26436 21475 ft 378 kts 146°
2026-05-06 12:45 47.80503 12.31651 21943 ft 402 kts 146°
2026-05-06 12:46 47.78333 12.34369 22165 ft 414 kts 146°
2026-05-06 12:46 47.76098 12.37164 22385 ft 425 kts 146°
2026-05-06 12:46 47.73808 12.40026 22791 ft 433 kts 146°
2026-05-06 12:46 47.71492 12.42919 23231 ft 438 kts 146°
2026-05-06 12:47 47.69144 12.45832 23706 ft 440 kts 146°
2026-05-06 12:47 47.66780 12.48748 24172 ft 443 kts 146°
2026-05-06 12:47 47.64396 12.51683 24624 ft 446 kts 146°
2026-05-06 12:47 47.61995 12.54627 25076 ft 449 kts 147°
2026-05-06 12:48 47.59589 12.57492 25480 ft 451 kts 148°
2026-05-06 12:48 47.57123 12.60389 25889 ft 453 kts 148°
2026-05-06 12:48 47.54638 12.63298 26311 ft 456 kts 148°
2026-05-06 12:48 47.52136 12.66229 26652 ft 461 kts 148°
2026-05-06 12:49 47.49604 12.69189 27070 ft 465 kts 148°
2026-05-06 12:49 47.47058 12.72165 27495 ft 468 kts 148°
2026-05-06 12:49 47.44496 12.75160 27856 ft 471 kts 148°
2026-05-06 12:49 47.41915 12.78174 28273 ft 474 kts 148°
2026-05-06 12:50 47.39327 12.81195 28818 ft 473 kts 148°
2026-05-06 12:50 47.36752 12.84198 29459 ft 471 kts 149°
2026-05-06 12:50 47.34182 12.87191 30026 ft 469 kts 149°
2026-05-06 12:50 47.31626 12.90164 30507 ft 468 kts 149°
2026-05-06 12:51 47.29070 12.93134 31002 ft 466 kts 149°
2026-05-06 12:51 47.26526 12.96089 31447 ft 465 kts 150°
2026-05-06 12:51 47.23976 12.99045 31915 ft 467 kts 150°
2026-05-06 12:51 47.21418 13.01988 32379 ft 467 kts 150°
2026-05-06 12:52 47.18859 13.04937 32871 ft 466 kts 150°
2026-05-06 12:52 47.16314 13.07869 33427 ft 463 kts 150°
2026-05-06 12:52 47.13787 13.10782 34004 ft 459 kts 150°
2026-05-06 12:52 47.11277 13.13672 34524 ft 457 kts 150°
2026-05-06 12:53 47.08773 13.16541 34870 ft 457 kts 150°
2026-05-06 12:53 47.06256 13.19418 35122 ft 458 kts 150°
2026-05-06 12:53 47.03738 13.22298 35334 ft 460 kts 149°
2026-05-06 12:53 47.01237 13.25153 35555 ft 462 kts 149°
2026-05-06 12:54 46.98693 13.28054 35769 ft 465 kts 149°
2026-05-06 12:54 46.96136 13.30977 35931 ft 467 kts 148°
2026-05-06 12:54 46.93569 13.33908 36149 ft 469 kts 148°
2026-05-06 12:54 46.90992 13.36845 36394 ft 470 kts 148°
2026-05-06 12:55 46.88406 13.39787 36589 ft 471 kts 148°
2026-05-06 12:55 46.85812 13.42733 36791 ft 473 kts 148°
2026-05-06 12:55 46.83208 13.45687 36907 ft 474 kts 148°
2026-05-06 12:56 46.78021 13.51719 37145 ft 479 kts 144°
2026-05-06 12:56 46.76081 13.54258 37314 ft 481 kts 142°
2026-05-06 12:56 46.73666 13.57663 37410 ft 482 kts 140°
2026-05-06 12:57 46.68867 13.64505 37403 ft 482 kts 140°
2026-05-06 12:57 46.64334 13.70945 37402 ft 482 kts 140°
2026-05-06 12:58 46.59556 13.77713 37414 ft 482 kts 140°
2026-05-06 12:58 46.54751 13.84500 37378 ft 481 kts 141°
2026-05-06 12:59 46.50163 13.90964 37406 ft 478 kts 141°
2026-05-06 12:59 46.45739 13.97180 37410 ft 477 kts 141°
2026-05-06 13:00 46.40968 14.03864 37418 ft 477 kts 141°
2026-05-06 13:00 46.36189 14.10545 37436 ft 477 kts 141°
2026-05-06 13:01 46.31401 14.17219 37426 ft 477 kts 141°
2026-05-06 13:01 46.26624 14.23868 37448 ft 476 kts 141°
2026-05-06 13:02 46.21851 14.30486 37447 ft 475 kts 141°
2026-05-06 13:02 46.17081 14.37079 37447 ft 475 kts 141°
2026-05-06 13:03 46.12305 14.43668 37445 ft 475 kts 141°
2026-05-06 13:03 46.07558 14.50196 37441 ft 475 kts 141°
2026-05-06 13:04 46.02764 14.56777 37449 ft 475 kts 141°
2026-05-06 13:04 45.98018 14.63341 37449 ft 474 kts 140°
2026-05-06 13:05 45.93582 14.70405 37453 ft 477 kts 136°
2026-05-06 13:05 45.89229 14.77639 37440 ft 478 kts 136°
2026-05-06 13:06 45.84861 14.84872 37444 ft 480 kts 136°
2026-05-06 13:06 45.80481 14.92108 37446 ft 480 kts 136°
2026-05-06 13:07 45.76099 14.99328 37446 ft 480 kts 136°
2026-05-06 13:07 45.71709 15.06541 37411 ft 480 kts 136°
2026-05-06 13:08 45.67307 15.13749 37446 ft 481 kts 136°
2026-05-06 13:08 45.62902 15.20949 37419 ft 480 kts 136°
2026-05-06 13:09 45.58490 15.28137 37435 ft 481 kts 136°
2026-05-06 13:09 45.54154 15.35346 37437 ft 481 kts 135°
2026-05-06 13:10 45.49840 15.42661 37429 ft 481 kts 135°
2026-05-06 13:10 45.45511 15.49960 37428 ft 480 kts 135°
2026-05-06 13:11 45.41186 15.57213 37438 ft 480 kts 136°
2026-05-06 13:11 45.36849 15.64463 37437 ft 480 kts 136°
2026-05-06 13:12 45.32485 15.71737 37422 ft 480 kts 135°
2026-05-06 13:12 45.28109 15.79016 37431 ft 480 kts 135°
2026-05-06 13:13 45.23747 15.86259 37432 ft 479 kts 136°
2026-05-06 13:13 45.19380 15.93487 37433 ft 478 kts 136°
2026-05-06 13:14 45.15034 16.00644 37420 ft 479 kts 136°
2026-05-06 13:14 45.10669 16.07829 37427 ft 480 kts 136°
2026-05-06 13:15 45.06304 16.14999 37428 ft 480 kts 136°
2026-05-06 13:15 45.01951 16.22129 37431 ft 480 kts 136°
2026-05-06 13:16 44.97584 16.29260 37403 ft 480 kts 136°
2026-05-06 13:16 44.93209 16.36386 37427 ft 480 kts 136°
2026-05-06 13:17 44.88830 16.43504 37428 ft 480 kts 136°
2026-05-06 13:17 44.84448 16.50610 37424 ft 480 kts 136°
2026-05-06 13:18 44.80058 16.57704 37423 ft 479 kts 136°
2026-05-06 13:18 44.75666 16.64786 37422 ft 479 kts 136°
2026-05-06 13:19 44.71274 16.71851 37420 ft 479 kts 136°
2026-05-06 13:19 44.66878 16.78904 37427 ft 479 kts 136°
2026-05-06 13:20 44.62478 16.85941 37406 ft 478 kts 135°
2026-05-06 13:20 44.58076 16.92964 37429 ft 477 kts 135°
2026-05-06 13:21 44.53672 16.99985 37433 ft 477 kts 135°
2026-05-06 13:21 44.49268 17.06980 37431 ft 477 kts 135°
2026-05-06 13:22 44.44871 17.13948 37428 ft 477 kts 135°
2026-05-06 13:22 44.40500 17.20860 37450 ft 477 kts 135°
2026-05-06 13:23 44.36098 17.27809 37462 ft 477 kts 135°
2026-05-06 13:23 44.31690 17.34745 37452 ft 477 kts 135°
2026-05-06 13:24 44.27262 17.41689 37459 ft 477 kts 135°
2026-05-06 13:24 44.22831 17.48620 37470 ft 479 kts 135°
2026-05-06 13:25 44.18377 17.55569 37456 ft 479 kts 135°
2026-05-06 13:25 44.13928 17.62497 37471 ft 479 kts 135°
2026-05-06 13:26 44.09640 17.69627 37459 ft 481 kts 131°
2026-05-06 13:26 44.05534 17.76997 37477 ft 482 kts 131°
2026-05-06 13:27 44.01545 17.84140 37476 ft 482 kts 131°
2026-05-06 13:27 43.97424 17.91494 37479 ft 482 kts 131°
2026-05-06 13:28 43.93326 17.98783 37475 ft 483 kts 131°
2026-05-06 13:28 43.89176 18.06150 37480 ft 485 kts 131°
2026-05-06 13:29 43.85004 18.13536 37481 ft 485 kts 131°
2026-05-06 13:29 43.80836 18.20896 37473 ft 485 kts 131°
2026-05-06 13:30 43.76663 18.28246 37471 ft 485 kts 131°
2026-05-06 13:30 43.72483 18.35584 37475 ft 485 kts 131°
2026-05-06 13:31 43.68981 18.41726 37481 ft 485 kts 131°
2026-05-06 13:31 43.64824 18.48991 37489 ft 484 kts 131°
2026-05-06 13:32 43.60642 18.56285 37499 ft 485 kts 131°
2026-05-06 13:32 43.56439 18.63598 37513 ft 486 kts 131°
2026-05-06 13:33 43.52222 18.70918 37502 ft 486 kts 131°
2026-05-06 13:33 43.48013 18.78205 37509 ft 486 kts 131°
2026-05-06 13:34 43.43796 18.85492 37505 ft 487 kts 131°
2026-05-06 13:34 43.39558 18.92788 37507 ft 488 kts 131°
2026-05-06 13:35 43.35317 19.00074 37512 ft 488 kts 131°
2026-05-06 13:35 43.31065 19.07364 37508 ft 488 kts 131°
2026-05-06 13:36 43.26810 19.14640 37503 ft 488 kts 131°
2026-05-06 13:36 43.22543 19.21914 37505 ft 489 kts 131°
2026-05-06 13:37 43.18257 19.29208 37513 ft 489 kts 131°
2026-05-06 13:37 43.13972 19.36478 37516 ft 489 kts 131°
2026-05-06 13:38 43.09685 19.43735 37513 ft 489 kts 131°
2026-05-06 13:38 43.05422 19.50933 37523 ft 490 kts 131°
2026-05-06 13:39 43.01101 19.58212 37512 ft 491 kts 131°
2026-05-06 13:39 42.96790 19.65454 37528 ft 491 kts 131°
2026-05-06 13:40 42.92465 19.72701 37513 ft 492 kts 132°
2026-05-06 13:40 42.88139 19.79935 37508 ft 492 kts 132°
2026-05-06 13:41 42.83792 19.87182 37523 ft 493 kts 132°
2026-05-06 13:41 42.79431 19.94434 37522 ft 493 kts 132°
2026-05-06 13:42 42.75083 20.01645 37529 ft 493 kts 132°
2026-05-06 13:42 42.70722 20.08873 37529 ft 494 kts 132°
2026-05-06 13:43 42.66345 20.16106 37522 ft 493 kts 131°
2026-05-06 13:43 42.61962 20.23323 37540 ft 494 kts 131°
2026-05-06 13:44 42.57567 20.30544 37523 ft 494 kts 132°
2026-05-06 13:44 42.53187 20.37726 37533 ft 493 kts 132°
2026-05-06 13:45 42.48800 20.44897 37536 ft 493 kts 132°
2026-05-06 13:45 42.42198 20.55646 37544 ft 494 kts 131°
2026-05-06 13:46 42.37783 20.62823 37545 ft 494 kts 131°
2026-05-06 13:46 42.33378 20.69965 37545 ft 494 kts 131°
2026-05-06 13:47 42.28969 20.77095 37548 ft 494 kts 132°
2026-05-06 13:47 42.24552 20.84212 37548 ft 494 kts 131°
2026-05-06 13:48 42.20122 20.91337 37554 ft 495 kts 131°
2026-05-06 13:48 42.15715 20.98409 37538 ft 495 kts 131°
2026-05-06 13:49 42.11214 21.05423 37548 ft 494 kts 135°
2026-05-06 13:49 42.06307 21.11883 37528 ft 493 kts 139°
2026-05-06 13:50 42.01305 21.18222 37532 ft 494 kts 139°
2026-05-06 13:50 41.96294 21.24563 37522 ft 494 kts 139°
2026-05-06 13:51 41.91280 21.30901 37515 ft 494 kts 139°
2026-05-06 13:51 41.86261 21.37230 37522 ft 495 kts 139°
2026-05-06 13:52 41.81242 21.43545 37518 ft 494 kts 139°
2026-05-06 13:52 41.76249 21.49814 37509 ft 495 kts 139°
2026-05-06 13:53 41.71218 21.56113 37520 ft 495 kts 139°
2026-05-06 13:53 41.66188 21.62402 37493 ft 494 kts 139°
2026-05-06 13:54 41.61153 21.68684 37515 ft 494 kts 139°
2026-05-06 13:54 41.56113 21.74953 37519 ft 494 kts 139°
2026-05-06 13:55 41.51075 21.81206 37510 ft 495 kts 139°
2026-05-06 13:55 41.46013 21.87474 37512 ft 496 kts 139°
2026-05-06 13:56 41.40938 21.93747 37521 ft 497 kts 139°
2026-05-06 13:56 41.35863 22.00005 37524 ft 496 kts 139°
2026-05-06 13:57 41.30776 22.06261 37526 ft 497 kts 139°
2026-05-06 13:57 41.25679 22.12516 37525 ft 496 kts 139°
2026-05-06 13:58 41.20623 22.18702 37531 ft 498 kts 139°
2026-05-06 13:58 41.15475 22.24870 37526 ft 498 kts 142°
2026-05-06 13:59 41.10099 22.30685 37521 ft 498 kts 142°
2026-05-06 13:59 41.04687 22.36502 37528 ft 498 kts 142°
2026-05-06 14:00 40.99306 22.42272 37530 ft 498 kts 143°
2026-05-06 14:00 40.93911 22.48044 37521 ft 498 kts 142°
2026-05-06 14:01 40.88508 22.53813 37529 ft 499 kts 142°
2026-05-06 14:01 40.83108 22.59570 37527 ft 499 kts 142°
2026-05-06 14:02 40.77695 22.65327 37525 ft 499 kts 142°
2026-05-06 14:02 40.72283 22.71070 37531 ft 499 kts 142°
2026-05-06 14:03 40.66873 22.76797 37529 ft 499 kts 143°
2026-05-06 14:03 40.61449 22.82521 37529 ft 500 kts 142°
2026-05-06 14:04 40.56016 22.88248 37527 ft 501 kts 142°
2026-05-06 14:04 40.50573 22.93972 37528 ft 501 kts 142°
2026-05-06 14:05 40.45253 22.99886 37528 ft 501 kts 137°
2026-05-06 14:05 40.40373 23.06433 37533 ft 502 kts 134°
2026-05-06 14:06 40.35605 23.13048 37539 ft 502 kts 134°
2026-05-06 14:06 40.30925 23.19513 37547 ft 504 kts 134°
2026-05-06 14:07 40.26095 23.26168 37550 ft 504 kts 134°
2026-05-06 14:07 40.21256 23.32815 37550 ft 504 kts 134°
2026-05-06 14:08 40.16408 23.39458 37543 ft 504 kts 134°
2026-05-06 14:08 40.11560 23.46083 37556 ft 505 kts 134°
2026-05-06 14:09 40.06688 23.52728 37561 ft 506 kts 134°
2026-05-06 14:09 40.01815 23.59360 37566 ft 506 kts 134°
2026-05-06 14:10 39.96926 23.66000 37560 ft 506 kts 134°
2026-05-06 14:10 39.92042 23.72618 37558 ft 506 kts 134°
2026-05-06 14:11 39.87154 23.79225 37563 ft 507 kts 134°
2026-05-06 14:11 39.82254 23.85835 37564 ft 507 kts 134°
2026-05-06 14:12 39.77342 23.92447 37566 ft 507 kts 134°
2026-05-06 14:12 39.72432 23.99042 37565 ft 507 kts 134°
2026-05-06 14:13 39.67508 24.05642 37561 ft 507 kts 134°
2026-05-06 14:13 39.62572 24.12241 37570 ft 509 kts 134°
2026-05-06 14:14 39.57630 24.18836 37564 ft 509 kts 134°
2026-05-06 14:14 39.52687 24.25415 37561 ft 509 kts 134°
2026-05-06 14:15 39.47772 24.31943 37567 ft 509 kts 134°
2026-05-06 14:15 39.42822 24.38503 37570 ft 509 kts 134°
2026-05-06 14:16 39.37857 24.45065 37568 ft 511 kts 135°
2026-05-06 14:16 39.32884 24.51634 37566 ft 511 kts 134°
2026-05-06 14:17 39.27914 24.58292 37567 ft 511 kts 134°
2026-05-06 14:17 39.22972 24.64906 37575 ft 511 kts 134°
2026-05-06 14:18 39.18850 24.70399 37571 ft 511 kts 134°
2026-05-06 14:18 39.13890 24.76987 37571 ft 512 kts 134°
2026-05-06 14:19 39.08919 24.83561 37575 ft 511 kts 135°
2026-05-06 14:19 39.03913 24.90070 37579 ft 511 kts 135°
2026-05-06 14:20 38.98884 24.96579 37562 ft 511 kts 135°
2026-05-06 14:20 38.93863 25.03067 37581 ft 512 kts 135°
2026-05-06 14:21 38.88853 25.09530 37578 ft 514 kts 135°
2026-05-06 14:21 38.83804 25.16031 37579 ft 514 kts 135°
2026-05-06 14:22 38.78747 25.22529 37581 ft 514 kts 135°
2026-05-06 14:22 38.73688 25.29014 37575 ft 514 kts 135°
2026-05-06 14:23 38.68625 25.35492 37579 ft 515 kts 135°
2026-05-06 14:23 38.63542 25.41980 37582 ft 516 kts 135°
2026-05-06 14:24 38.58449 25.48467 37579 ft 516 kts 135°
2026-05-06 14:24 38.53351 25.54948 37579 ft 516 kts 135°
2026-05-06 14:25 38.48251 25.61415 37582 ft 516 kts 135°
2026-05-06 14:25 38.43172 25.67838 37588 ft 517 kts 135°
2026-05-06 14:26 38.38044 25.74313 37579 ft 518 kts 135°
2026-05-06 14:26 38.32923 25.80792 37586 ft 518 kts 135°
2026-05-06 14:27 38.27805 25.87262 37584 ft 518 kts 135°
2026-05-06 14:27 38.22539 25.93537 37585 ft 518 kts 139°
2026-05-06 14:28 38.17097 25.99570 37585 ft 519 kts 140°
2026-05-06 14:28 38.11644 26.05592 37573 ft 520 kts 140°
2026-05-06 14:29 38.06183 26.11624 37582 ft 519 kts 140°
2026-05-06 14:29 38.00677 26.17702 37585 ft 519 kts 140°
2026-05-06 14:30 37.95220 26.23708 37584 ft 520 kts 140°
2026-05-06 14:30 37.89730 26.29730 37591 ft 521 kts 140°
2026-05-06 14:31 37.84215 26.35770 37591 ft 522 kts 140°
2026-05-06 14:31 37.78704 26.41784 37582 ft 521 kts 140°
2026-05-06 14:32 37.73239 26.47725 37585 ft 521 kts 140°
2026-05-06 14:32 37.67731 26.53703 37586 ft 521 kts 140°
2026-05-06 14:33 37.62233 26.59684 37587 ft 523 kts 140°
2026-05-06 14:33 37.56875 26.65501 37583 ft 524 kts 140°
2026-05-06 14:34 37.51317 26.71516 37584 ft 524 kts 140°
2026-05-06 14:34 37.45779 26.77493 37583 ft 524 kts 140°
2026-05-06 14:35 37.40243 26.83477 37579 ft 524 kts 139°
2026-05-06 14:35 37.34933 26.89759 37584 ft 525 kts 137°
2026-05-06 14:36 37.29839 26.96345 37587 ft 525 kts 132°
2026-05-06 14:36 37.24947 27.03168 37574 ft 526 kts 132°
2026-05-06 14:37 37.20008 27.09996 37575 ft 525 kts 133°
2026-05-06 14:37 37.15096 27.16712 37574 ft 525 kts 133°
2026-05-06 14:38 37.10126 27.23468 37575 ft 528 kts 133°
2026-05-06 14:38 37.05158 27.30206 37572 ft 528 kts 133°
2026-05-06 14:39 37.00134 27.37003 37568 ft 528 kts 133°
2026-05-06 14:39 36.95140 27.43746 37571 ft 528 kts 133°
2026-05-06 14:40 36.90138 27.50487 37558 ft 528 kts 133°
2026-05-06 14:40 36.85114 27.57245 37562 ft 528 kts 133°
2026-05-06 14:41 36.80101 27.63970 37558 ft 528 kts 133°
2026-05-06 14:41 36.75090 27.70679 37559 ft 528 kts 133°
2026-05-06 14:42 36.70075 27.77381 37559 ft 528 kts 133°
2026-05-06 14:42 36.65054 27.84077 37551 ft 528 kts 133°
2026-05-06 14:43 36.60061 27.90723 37547 ft 528 kts 133°
2026-05-06 14:43 36.55037 27.97399 37545 ft 527 kts 134°
2026-05-06 14:44 36.50016 28.04055 37553 ft 527 kts 134°
2026-05-06 14:45 36.42478 28.14018 37552 ft 527 kts 134°
2026-05-06 14:45 36.37429 28.20675 37547 ft 527 kts 134°
2026-05-06 14:46 36.32399 28.27295 37548 ft 527 kts 134°
2026-05-06 14:46 36.27365 28.33907 37551 ft 527 kts 134°
2026-05-06 14:47 36.22325 28.40514 37548 ft 528 kts 134°
2026-05-06 14:47 36.17291 28.47098 37553 ft 529 kts 134°
2026-05-06 14:48 36.12182 28.53769 37556 ft 529 kts 134°
2026-05-06 14:48 36.07144 28.60334 37553 ft 529 kts 134°
2026-05-06 14:49 36.02033 28.66979 37558 ft 529 kts 134°
2026-05-06 14:49 35.96972 28.73547 37557 ft 529 kts 134°
2026-05-06 14:50 35.91890 28.80129 37540 ft 529 kts 134°
2026-05-06 14:50 35.86806 28.86705 37557 ft 528 kts 134°
2026-05-06 14:51 35.81723 28.93260 37565 ft 528 kts 134°
2026-05-06 14:51 35.76635 28.99810 37568 ft 528 kts 135°
2026-05-06 14:52 35.71552 29.06340 37563 ft 528 kts 135°
2026-05-06 14:52 35.66460 29.12870 37564 ft 528 kts 135°
2026-05-06 14:53 35.61368 29.19386 37565 ft 528 kts 135°